sat.trackr.live / text

‹ back to catalog

STARLINK-31855

NORAD 59838 · 2024-097D

PAYLOAD ACTIVE UNKNOWN

§ Identity

Operator
Country
US
Launch date
2024-05-23
Launch site
AFETR
Launch vehicle
Mass (kg)
RCS (m²)

Purposes: comms

External: N2YO · Heavens-Above · Gunter

§ Orbital elements

Epoch: 2026-05-25T05:10:56.288064Z

Period
94.26 min
Inclination
43.0019°
Eccentricity
0.0001416
Mean motion
15.27609166 rev/d
Perigee alt
482.0 km
Apogee alt
483.9 km
Semi-major
6,861.1 km
B*
4.0352e-4
RAAN
201.9047°
Arg perigee
249.0690°
Mean anomaly
111.0010°
Rev number
11,362

§ Raw data

STARLINK-318551 59838U 24097D   26145.21592926  .00010868  00000+0  40352-3 0  99982 59838  43.0019 201.9047 0001416 249.0690 111.0010 15.27609166113627

JSON: /api/v1/satellites/59838 · /tle

For live sub-satellite position, see the globe view (requires WebGL).

§ Visibility from observer

Set your observer location to see the next 7 days of passes ≥ 10°. The values pass through the URL so the page stays shareable.

No JS? Fill the form by hand. The geolocation button needs JavaScript.